Regional Weather Roundup
Issued by NWS

Home | Current Version | Previous Version | Graphics & Text | Print | Product List | Glossary On
Versions: 1 2 3 4 5 6 7 8 9 10 11 12 13 14 15 16 17 18 19 20 21 22 23 24 25 26 27 28 29 30 31 32 33 34 35 36 37 38 39 40 41 42 43 44 45 46 47 48 49 50
000
ASUS43 KIND 171009
RWRIN

WEATHER ROUNDUP FOR INDIANA
NATIONAL WEATHER SERVICE INDIANAPOLIS IN
500 AM EST SUN DEC 17 2017

NOTE: "FAIR" INDICATES FEW OR NO CLOUDS BELOW 12,000 FEET WITH NO
SIGNIFICANT WEATHER AND/OR OBSTRUCTIONS TO VISIBILITY.

* - STATION DOES NOT REPORT WEATHER SUCH AS PRECIPITATION OR FOG.

+ - STATION NOT QUALITY CONTROLLED BY THE NATIONAL WEATHER SERVICE.
    USE DATA WITH CAUTION...ESPECIALLY DEWPOINT AND RELATIVE
    HUMIDITY OBSERVATIONS.

INZ001>003-010>013-019-020-171100-
NORTHWEST INDIANA

CITY           SKY/WX    TMP DP  RH WIND       PRES   REMARKS
GARY /AIRPORT/ MOCLDY    28  27  94 CALM      30.06F
KNOX *+        CLOUDY    30  28  93 CALM      30.08R
LA PORTE +     CLOUDY    25  23  94 E3        30.07F
MICHIGAN CITY+ MOCLDY    27  27 100 CALM      30.07F
MONTICELLO +   CLOUDY    36  28  73 S5        30.07F WCI  32
RENSSELAER +   CLOUDY    32  27  80 CALM      30.07F
VALPARAISO     CLOUDY    30  26  85 CALM      30.06F

$$

LMZ046-743>745-171100-
SOUTHERN LAKE MICHIGAN

STATION/POSITION TIME  TEMP    WIND        PRES    WAVE
                       AIR SEA DIR/SP/G            HT
                 (UTC) (F)     (DEG/KT/KT) (MB)    (FT)
BURNS HARBOR     0940   36      CALM  /  2 1018.6F
MICHIGAN CITY    0940   34     140/  3/  4   N/A

$$

INZ004-005-014>016-021>024-171100-
NORTH CENTRAL INDIANA

CITY           SKY/WX    TMP DP  RH WIND       PRES   REMARKS
GOSHEN         PTCLDY    28  25  88 E5        30.08F WCI  23
LOGANSPORT +   CLOUDY    32  28  86 S6        30.09S WCI  26
PERU/GRISSOM   PTCLDY    34  29  83 S6        30.08S WCI  29
ROCHESTER +    CLOUDY    34  30  86 S5        30.09R WCI  30
SOUTH BEND     CLOUDY    27  26  96 E3        30.09S
WARSAW +       MOCLDY    32  28  86 CALM      30.09S

$$

INZ006>009-017-018-025>027-171100-
NORTHEAST INDIANA

CITY           SKY/WX    TMP DP  RH WIND       PRES   REMARKS
AUBURN +       FOG       28  27  93 NE8       30.12F VSB 1/2 WCI  20
FORT WAYNE     CLOUDY    27  25  92 E5        30.11F WCI  22
HUNTINGTON +   PTCLDY    28  26  92 CALM      30.10S

$$

INZ028-029-035-036-043>045-051>053-171100-
WEST CENTRAL INDIANA

CITY           SKY/WX    TMP DP  RH WIND       PRES   REMARKS
CRAWFORDSVL +  CLOUDY    34  28  79 S6        30.08F WCI  29
GREENCASTLE +  CLOUDY    39  28  65 S6        30.10F WCI  35
LAFAYETTE      CLOUDY    37  30  75 S3        30.08F
TERRE HAUTE    CLOUDY    40  29  64 S8        30.11S WCI  34

$$

INZ030>032-037>040-046>048-054>057-064-065-171100-
CENTRAL INDIANA

CITY           SKY/WX    TMP DP  RH WIND       PRES   REMARKS
FRANKFORT +    CLOUDY    38  31  77 S5        30.09F WCI  34
GREENWOOD *+   CLOUDY    38  31  75 SE5       30.12F WCI  35
INDIANAPOLIS   CLOUDY    38  29  70 S7        30.10F WCI  33
-EAGLE CREEK   CLOUDY    40  28  62 S5        30.09F WCI  37
MARION +       PTCLDY    32  28  84 S5        30.11S WCI  28
MT COMFORT *+  PTCLDY    34  30  86 S6        30.10F WCI  29
SHELBYVILLE    CLOUDY    38  27  64 S9        30.12F WCI  31
ZIONSVILLE +   CLOUDY    36  29  74 S7        30.09F WCI  31

$$

INZ033-034-041-042-049-050-058-059-171100-
EAST CENTRAL INDIANA

CITY           SKY/WX    TMP DP  RH WIND       PRES   REMARKS
MUNCIE         PTCLDY    38  28  67 S7        30.10S WCI  33
RICHMOND +     PTCLDY    28  27  93 S6        30.13F WCI  22

$$

INZ060-061-067>069-081>083-085>088-171100-
SOUTHWEST INDIANA

CITY           SKY/WX    TMP DP  RH WIND       PRES   REMARKS
EVANSVILLE     CLOUDY    42  32  67 S3        30.15F
HUNTINGBURG +  CLOUDY    41  31  67 S6        30.16F
WASHINGTON +   CLOUDY    39  29  68 S10       30.14S WCI  32

$$

INZ062-063-066-070>080-084-089>092-171100-
SOUTH CENTRAL AND SOUTHEAST INDIANA

CITY           SKY/WX    TMP DP  RH WIND       PRES   REMARKS
BEDFORD +      CLOUDY    41  28  60 S7        30.13F
BLOOMINGTON    MOCLDY    41  29  62 S6        30.11F
MADISON *+     MOCLDY    37  30  75 S3        30.17F
NORTH VERNON + MOCLDY    37  28  70 S7        30.15F WCI  32
SEYMOUR +      CLOUDY    37  28  70 S6        30.14  WCI  33

$$





USA.gov is the U.S. government's official web portal to all federal, state and local government web resources and services.